Bob Sikes Airport
KCEW : now visible

Airfield :











YOU CAN JOIN US ON...

 
LOGIN :

Register | Disclaimer

   EN    FR    IT 

 









Legend :    VFR   Marginal VFR   IFR   Intensive IFR   Very Intensive IFR
Visi :
Ceiling :
>= 8 km
>= 3000ft
5 to 8 km
1000 to 3000 ft
1500m to 5 km
500 to 1000 ft
800 to 1500m
200 to 500 ft
< 800m
< 200 ft
Symbols :   Thunderstorms  Fog  Heavy snow  Heavy precipitations  Wind > 20 kt






- Airport Elevation : 213 ft


KCEW - Bob Sikes

CURRENT METAR :
  • 270253Z AUTO 10003KT 10SM OVC007 18/17 A2995 RMK AO2 SLP139 60000 T01830167 50004

EXPIRED METARs :
  • 270240Z AUTO 07003KT 10SM OVC007 18/16 A2995 RMK AO2 CIG 005V010 T01830161
  • 270153Z AUTO 00000KT 10SM OVC011 19/17 A2997 RMK AO2 RAB30E53 SLP144 P0000 T01890172
  • 270053Z AUTO 00000KT 10SM OVC012 19/17 A2995 RMK AO2 SLP137 T01890172

TAF N/A
KZJX FIR / North America



MET'MAP, your aeronautical weather chart ! - Copyright ORBIFLY December 2007 - Disclaimer

ORBIFLY MET'MAP TEAM :

Programming & Development : Alexandra Zaïnal
Concept & original design : Baudouin d'Aumeries
Assistance for programming : Marc-Olivier Méhu
Technical & hardware support : Manuel Goepfert

Contact : metmap@orbifly.com




SOURCES & CREDITS :

   NOAA       Earth
Advisory